Nephi, UT (84648)

9:46 PM MDT on August 03, 2015 (GMT -0600)
Fountain Green | | Change Station
CLOSE
Current Station
Personal Weather Station
Location: Fountain Green, UT
Elevation: 5912 ft
Nearby Weather Stations

Elev 5912 ft 39.63 °N, 111.63 °W | Updated 8 minutes ago

Partly Cloudy
Partly Cloudy
63.1 °F
Feels Like 63.1 °F
N
2.2
Wind Variable Wind from NNW

Today
High -- | Low -- °F
--% Chance of Precip.
Yesterday
High -- | Low -- °F
Precip. -- in
6:28 AM 8:38 PM
Waning Gibbous, 81% visible
Pressure 30.10 in
Visibility 8.0 miles
Clouds Clear
Dew Point 50 °F
Humidity 63%
Rainfall 0.60 in
Snow Depth Not available.
UV 0 out of 12
Pollen 1.90 out of 12
Air Quality Not available.
Flu Activity Not available.
METAR KPVU 040335Z AUTO 03005KT 8SM CLR 17/12 A3010 RMK AO1

More Conditions Fewer Conditions

Pressure 30.10 in
Visibility 8.0 miles
Clouds Clear
Dew Point 50 °F
Humidity 63%
Rainfall 0.60 in
Snow Depth Not available.
UV 0 out of 12
Pollen 1.90 out of 12
Air Quality Not available.
Flu Activity Not available.
METAR KPVU 040335Z AUTO 03005KT 8SM CLR 17/12 A3010 RMK AO1

More Conditions Fewer Conditions

10-Day Weather Forecast

×

Almanac

Astronomy

Aug. 03, 2015 Rise Set
Actual Time
Civil Twilight
Nautical Twilight
Astronomical Twilight
Moon
Length of Visible Light
Length of Day
Tomorrow will be .
, % of the Moon is Illuminated

Today's Extremes

State Highs State Lows

Community

WunderPhotos

Upload Photos

1,843,847 photos uploaded!

WunderBlogs® & News

Nearby

Air Quality

  Air Quality AQ Index Pollutant
Not available.

Snow Depth

Station Depth Elevation

Earthquake Activity

City Distance Mag. Time & Date
Minimum magnitude displayed is 2.5.

Coastal Water Temperatures

Place Temperature

Stations

Nearby Weather Stations

Station Location Temp. Windchill Dew Point Humidity Wind Precip. Elev Updated Type